Year,Month,Day,Hour,Minute,Value (Times are PST for temperature in C)
2007,05,24,00,00,9.30
2007,05,24,00,01,9.30
2007,05,24,00,02,9.30
2007,05,24,00,03,9.30
2007,05,24,00,04,9.30
2007,05,24,00,05,9.30
2007,05,24,00,06,9.30
2007,05,24,00,07,9.30
2007,05,24,00,08,9.30
2007,05,24,00,09,9.30
2007,05,24,00,10,9.30
2007,05,24,00,11,9.30
2007,05,24,00,12,9.30
2007,05,24,00,13,9.30
2007,05,24,00,14,9.40
2007,05,24,00,15,9.40
2007,05,24,00,16,9.40
2007,05,24,00,17,9.40
2007,05,24,00,18,9.50
2007,05,24,00,19,9.50
2007,05,24,00,20,9.60
2007,05,24,00,21,9.50
2007,05,24,00,22,9.40
2007,05,24,00,23,9.40
2007,05,24,00,24,9.30
2007,05,24,00,25,9.30
2007,05,24,00,26,9.30
2007,05,24,00,27,9.30
2007,05,24,00,28,9.20
2007,05,24,00,29,9.20
2007,05,24,00,30,9.20
2007,05,24,00,31,9.10
2007,05,24,00,32,9.10
2007,05,24,00,33,9.00
2007,05,24,00,34,9.00
2007,05,24,00,35,8.90
2007,05,24,00,36,8.90
2007,05,24,00,37,8.90
2007,05,24,00,38,8.90
2007,05,24,00,39,8.90
2007,05,24,00,40,9.00
2007,05,24,00,41,9.20
2007,05,24,00,42,9.20
2007,05,24,00,43,9.20
2007,05,24,00,44,9.30
2007,05,24,00,45,9.30
2007,05,24,00,46,9.30
2007,05,24,00,47,9.30
2007,05,24,00,48,9.20
2007,05,24,00,49,9.20
2007,05,24,00,50,9.10
2007,05,24,00,51,9.00
2007,05,24,00,52,9.00
2007,05,24,00,53,8.90
2007,05,24,00,54,8.90
2007,05,24,00,55,8.90
2007,05,24,00,56,8.90
2007,05,24,00,57,8.90
2007,05,24,00,58,8.90
2007,05,24,00,59,8.80
2007,05,24,01,00,8.80
2007,05,24,01,01,8.80
2007,05,24,01,02,8.80
2007,05,24,01,03,8.80
2007,05,24,01,04,8.80
2007,05,24,01,05,8.80
2007,05,24,01,06,8.70
2007,05,24,01,07,8.70
2007,05,24,01,08,8.70
2007,05,24,01,09,8.70
2007,05,24,01,10,8.70
2007,05,24,01,11,8.70
2007,05,24,01,12,8.70
2007,05,24,01,13,8.70
2007,05,24,01,14,8.70
2007,05,24,01,15,8.70
2007,05,24,01,16,8.70
2007,05,24,01,17,8.70
2007,05,24,01,18,8.70
2007,05,24,01,19,8.70
2007,05,24,01,20,8.60
2007,05,24,01,21,8.70
2007,05,24,01,22,8.70
2007,05,24,01,23,8.70
2007,05,24,01,24,8.70
2007,05,24,01,25,8.70
2007,05,24,01,26,8.70
2007,05,24,01,27,8.70
2007,05,24,01,28,8.70
2007,05,24,01,29,8.60
2007,05,24,01,30,8.60
2007,05,24,01,31,8.60
2007,05,24,01,32,8.60
2007,05,24,01,33,8.70
2007,05,24,01,34,8.60
2007,05,24,01,35,8.60
2007,05,24,01,36,8.60
2007,05,24,01,37,8.60
2007,05,24,01,38,8.60
2007,05,24,01,39,8.60
2007,05,24,01,40,8.60
2007,05,24,01,41,8.60
2007,05,24,01,42,8.60
2007,05,24,01,43,8.60
2007,05,24,01,44,8.50
2007,05,24,01,45,8.50
2007,05,24,01,46,8.50
2007,05,24,01,47,8.40
2007,05,24,01,48,8.40
2007,05,24,01,49,8.40
2007,05,24,01,50,8.40
2007,05,24,01,51,8.40
2007,05,24,01,52,8.40
2007,05,24,01,53,8.40
2007,05,24,01,54,8.40
2007,05,24,01,55,8.30
2007,05,24,01,56,8.30
2007,05,24,01,57,8.30
2007,05,24,01,58,8.40
2007,05,24,01,59,8.30
2007,05,24,02,00,8.30
2007,05,24,02,01,8.40
2007,05,24,02,02,8.40
2007,05,24,02,03,8.40
2007,05,24,02,04,8.40
2007,05,24,02,05,8.40
2007,05,24,02,06,8.40
2007,05,24,02,07,8.40
2007,05,24,02,08,8.40
2007,05,24,02,09,8.40
2007,05,24,02,10,8.40
2007,05,24,02,11,8.40
2007,05,24,02,12,8.40
2007,05,24,02,13,8.40
2007,05,24,02,14,8.40
2007,05,24,02,15,8.40
2007,05,24,02,16,8.40
2007,05,24,02,17,8.40
2007,05,24,02,18,8.30
2007,05,24,02,19,8.40
2007,05,24,02,20,8.30
2007,05,24,02,21,8.30
2007,05,24,02,22,8.30
2007,05,24,02,23,8.30
2007,05,24,02,24,8.30
2007,05,24,02,25,8.30
2007,05,24,02,26,8.20
2007,05,24,02,27,8.20
2007,05,24,02,28,8.10
2007,05,24,02,29,8.00
2007,05,24,02,30,8.00
2007,05,24,02,31,8.00
2007,05,24,02,32,8.00
2007,05,24,02,33,7.90
2007,05,24,02,34,7.90
2007,05,24,02,35,7.90
2007,05,24,02,36,7.80
2007,05,24,02,37,7.80
2007,05,24,02,38,7.70
2007,05,24,02,39,7.60
2007,05,24,02,40,7.60
2007,05,24,02,41,7.50
2007,05,24,02,42,7.40
2007,05,24,02,43,7.40
2007,05,24,02,44,7.30
2007,05,24,02,45,7.30
2007,05,24,02,46,7.20
2007,05,24,02,47,7.20
2007,05,24,02,48,7.20
2007,05,24,02,49,7.30
2007,05,24,02,50,7.20
2007,05,24,02,51,7.20
2007,05,24,02,52,7.20
2007,05,24,02,53,7.30
2007,05,24,02,54,7.30
2007,05,24,02,55,7.30
2007,05,24,02,56,7.40
2007,05,24,02,57,7.30
2007,05,24,02,58,7.40
2007,05,24,02,59,7.30
2007,05,24,03,00,7.30
2007,05,24,03,01,7.30
2007,05,24,03,02,7.30
2007,05,24,03,03,7.20
2007,05,24,03,04,7.20
2007,05,24,03,05,7.30
2007,05,24,03,06,7.20
2007,05,24,03,07,7.20
2007,05,24,03,08,7.20
2007,05,24,03,09,7.10
2007,05,24,03,10,7.10
2007,05,24,03,11,7.10
2007,05,24,03,12,7.10
2007,05,24,03,13,7.10
2007,05,24,03,14,7.10
2007,05,24,03,15,7.10
2007,05,24,03,16,7.10
2007,05,24,03,17,7.00
2007,05,24,03,18,7.00
2007,05,24,03,19,6.90
2007,05,24,03,20,6.90
2007,05,24,03,21,6.80
2007,05,24,03,22,6.80
2007,05,24,03,23,6.80
2007,05,24,03,24,6.80
2007,05,24,03,25,6.80
2007,05,24,03,26,6.80
2007,05,24,03,27,6.80
2007,05,24,03,28,6.70
2007,05,24,03,29,6.70
2007,05,24,03,30,6.80
2007,05,24,03,31,6.80
2007,05,24,03,32,6.80
2007,05,24,03,33,6.80
2007,05,24,03,34,6.80
2007,05,24,03,35,6.80
2007,05,24,03,36,6.80
2007,05,24,03,37,6.80
2007,05,24,03,38,6.80
2007,05,24,03,39,6.80
2007,05,24,03,40,6.80
2007,05,24,03,41,6.80
2007,05,24,03,42,6.70
2007,05,24,03,43,6.70
2007,05,24,03,44,6.70
2007,05,24,03,45,6.70
2007,05,24,03,46,6.70
2007,05,24,03,47,6.70
2007,05,24,03,48,6.80
2007,05,24,03,49,6.70
2007,05,24,03,50,6.80
2007,05,24,03,51,6.80
2007,05,24,03,52,6.70
2007,05,24,03,53,6.70
2007,05,24,03,54,6.60
2007,05,24,03,55,6.60
2007,05,24,03,56,6.60
2007,05,24,03,57,6.60
2007,05,24,03,58,6.60
2007,05,24,03,59,6.50
2007,05,24,04,00,6.50
2007,05,24,04,01,6.50
2007,05,24,04,02,6.50
2007,05,24,04,03,6.50
2007,05,24,04,04,6.50
2007,05,24,04,05,6.40
2007,05,24,04,06,6.40
2007,05,24,04,07,6.40
2007,05,24,04,08,6.40
2007,05,24,04,09,6.40
2007,05,24,04,10,6.40
2007,05,24,04,11,6.40
2007,05,24,04,12,6.50
2007,05,24,04,13,6.50
2007,05,24,04,14,6.50
2007,05,24,04,15,6.60
2007,05,24,04,16,6.60
2007,05,24,04,17,6.50
2007,05,24,04,18,6.50
2007,05,24,04,19,6.40
2007,05,24,04,20,6.40
2007,05,24,04,21,6.40
2007,05,24,04,22,6.40
2007,05,24,04,23,6.40
2007,05,24,04,24,6.40
2007,05,24,04,25,6.50
2007,05,24,04,26,6.50
2007,05,24,04,27,6.60
2007,05,24,04,28,6.60
2007,05,24,04,29,6.60
2007,05,24,04,30,6.60
2007,05,24,04,31,6.70
2007,05,24,04,32,6.70
2007,05,24,04,33,6.70
2007,05,24,04,34,6.70
2007,05,24,04,35,6.80
2007,05,24,04,36,6.80
2007,05,24,04,37,6.80
2007,05,24,04,38,6.80
2007,05,24,04,39,6.70
2007,05,24,04,40,6.70
2007,05,24,04,41,6.70
2007,05,24,04,42,6.70
2007,05,24,04,43,6.70
2007,05,24,04,44,6.60
2007,05,24,04,45,6.60
2007,05,24,04,46,6.60
2007,05,24,04,47,6.60
2007,05,24,04,48,6.60
2007,05,24,04,49,6.60
2007,05,24,04,50,6.60
2007,05,24,04,51,6.60
2007,05,24,04,52,6.60
2007,05,24,04,53,6.60
2007,05,24,04,54,6.60
2007,05,24,04,55,6.60
2007,05,24,04,56,6.60
2007,05,24,04,57,6.60
2007,05,24,04,58,6.60
2007,05,24,04,59,6.60
2007,05,24,05,00,6.60
2007,05,24,05,01,6.50
2007,05,24,05,02,6.50
2007,05,24,05,03,6.50
2007,05,24,05,04,6.50
2007,05,24,05,05,6.50
2007,05,24,05,06,6.40
2007,05,24,05,07,6.40
2007,05,24,05,08,6.40
2007,05,24,05,09,6.40
2007,05,24,05,10,6.50
2007,05,24,05,11,6.50
2007,05,24,05,12,6.50
2007,05,24,05,13,6.50
2007,05,24,05,14,6.50
2007,05,24,05,15,6.50
2007,05,24,05,16,6.50
2007,05,24,05,17,6.50
2007,05,24,05,18,6.60
2007,05,24,05,19,6.60
2007,05,24,05,20,6.60
2007,05,24,05,21,6.60
2007,05,24,05,22,6.60
2007,05,24,05,23,6.60
2007,05,24,05,24,6.60
2007,05,24,05,25,6.60
2007,05,24,05,26,6.60
2007,05,24,05,27,6.60
2007,05,24,05,28,6.60
2007,05,24,05,29,6.60
2007,05,24,05,30,6.60
2007,05,24,05,31,6.70
2007,05,24,05,32,6.70
2007,05,24,05,33,6.70
2007,05,24,05,34,6.80
2007,05,24,05,35,7.00
2007,05,24,05,36,7.20
2007,05,24,05,37,7.30
2007,05,24,05,38,7.50
2007,05,24,05,39,7.70
2007,05,24,05,40,7.80
2007,05,24,05,41,7.80
2007,05,24,05,42,7.80
2007,05,24,05,43,7.80
2007,05,24,05,44,7.80
2007,05,24,05,45,7.80
2007,05,24,05,46,7.80
2007,05,24,05,47,7.80
2007,05,24,05,48,7.80
2007,05,24,05,49,7.70
2007,05,24,05,50,7.60
2007,05,24,05,51,7.60
2007,05,24,05,52,7.70
2007,05,24,05,53,7.70
2007,05,24,05,54,7.70
2007,05,24,05,55,7.80
2007,05,24,05,56,7.80
2007,05,24,05,57,7.80
2007,05,24,05,58,7.80
2007,05,24,05,59,7.80
2007,05,24,06,00,7.80
2007,05,24,06,01,7.80
2007,05,24,06,02,7.90
2007,05,24,06,03,8.10
2007,05,24,06,04,8.20
2007,05,24,06,05,8.30
2007,05,24,06,06,8.30
2007,05,24,06,07,8.20
2007,05,24,06,08,8.20
2007,05,24,06,09,8.10
2007,05,24,06,10,8.00
2007,05,24,06,11,7.90
2007,05,24,06,12,7.80
2007,05,24,06,13,7.80
2007,05,24,06,14,7.80
2007,05,24,06,15,7.80
2007,05,24,06,16,7.80
2007,05,24,06,17,7.90
2007,05,24,06,18,7.90
2007,05,24,06,19,7.90
2007,05,24,06,20,8.00
2007,05,24,06,21,8.10
2007,05,24,06,22,8.10
2007,05,24,06,23,8.20
2007,05,24,06,24,8.30
2007,05,24,06,25,8.30
2007,05,24,06,26,8.50
2007,05,24,06,27,8.60
2007,05,24,06,28,8.70
2007,05,24,06,29,8.70
2007,05,24,06,30,8.80
2007,05,24,06,31,8.90
2007,05,24,06,32,9.10
2007,05,24,06,33,9.20
2007,05,24,06,34,9.40
2007,05,24,06,35,9.60
2007,05,24,06,36,9.70
2007,05,24,06,37,9.80
2007,05,24,06,38,9.90
2007,05,24,06,39,10.00
2007,05,24,06,40,10.10
2007,05,24,06,41,10.20
2007,05,24,06,42,10.20
2007,05,24,06,43,10.20
2007,05,24,06,44,10.30
2007,05,24,06,45,10.30
2007,05,24,06,46,10.40
2007,05,24,06,47,10.50
2007,05,24,06,48,10.60
2007,05,24,06,49,10.70
2007,05,24,06,50,10.90
2007,05,24,06,51,11.00
2007,05,24,06,52,11.20
2007,05,24,06,53,11.30
2007,05,24,06,54,11.40
2007,05,24,06,55,11.50
2007,05,24,06,56,11.70
2007,05,24,06,57,11.80
2007,05,24,06,58,11.90
2007,05,24,06,59,12.00
2007,05,24,07,00,12.10
2007,05,24,07,01,12.20
2007,05,24,07,02,12.20
2007,05,24,07,03,12.30
2007,05,24,07,04,12.40
2007,05,24,07,05,12.40
2007,05,24,07,06,12.50
2007,05,24,07,07,12.50
2007,05,24,07,08,12.60
2007,05,24,07,09,12.60
2007,05,24,07,10,12.60
2007,05,24,07,11,12.70
2007,05,24,07,12,12.70
2007,05,24,07,13,12.70
2007,05,24,07,14,12.80
2007,05,24,07,15,12.80
2007,05,24,07,16,12.80
2007,05,24,07,17,12.80
2007,05,24,07,18,12.80
2007,05,24,07,19,12.80
2007,05,24,07,20,12.90
2007,05,24,07,21,12.90
2007,05,24,07,22,13.00
2007,05,24,07,23,13.00
2007,05,24,07,24,13.10
2007,05,24,07,25,13.10
2007,05,24,07,26,13.10
2007,05,24,07,27,13.10
2007,05,24,07,28,13.10
2007,05,24,07,29,13.20
2007,05,24,07,30,13.20
2007,05,24,07,31,13.20
2007,05,24,07,32,13.20
2007,05,24,07,33,13.20
2007,05,24,07,34,13.30
2007,05,24,07,35,13.30
2007,05,24,07,36,13.40
2007,05,24,07,37,13.40
2007,05,24,07,38,13.50
2007,05,24,07,39,13.50
2007,05,24,07,40,13.60
2007,05,24,07,41,13.60
2007,05,24,07,42,13.60
2007,05,24,07,43,13.60
2007,05,24,07,44,13.60
2007,05,24,07,45,13.60
2007,05,24,07,46,13.60
2007,05,24,07,47,13.60
2007,05,24,07,48,13.60
2007,05,24,07,49,13.60
2007,05,24,07,50,13.50
2007,05,24,07,51,13.50
2007,05,24,07,52,13.50
2007,05,24,07,53,13.50
2007,05,24,07,54,13.60
2007,05,24,07,55,13.70
2007,05,24,07,56,13.70
2007,05,24,07,57,13.80
2007,05,24,07,58,13.80
2007,05,24,07,59,13.90
2007,05,24,08,00,14.00
2007,05,24,08,01,14.00
2007,05,24,08,02,14.10
2007,05,24,08,03,14.20
2007,05,24,08,04,14.20
2007,05,24,08,05,14.20
2007,05,24,08,06,14.20
2007,05,24,08,07,14.20
2007,05,24,08,08,14.10
2007,05,24,08,09,14.00
2007,05,24,08,10,14.00
2007,05,24,08,11,14.10
2007,05,24,08,12,14.10
2007,05,24,08,13,14.20
2007,05,24,08,14,14.20
2007,05,24,08,15,14.30
2007,05,24,08,16,14.30
2007,05,24,08,17,14.30
2007,05,24,08,18,14.30
2007,05,24,08,19,14.20
2007,05,24,08,20,14.20
2007,05,24,08,21,14.20
2007,05,24,08,22,14.20
2007,05,24,08,23,14.20
2007,05,24,08,24,14.30
2007,05,24,08,25,14.30
2007,05,24,08,26,14.30
2007,05,24,08,27,14.30
2007,05,24,08,28,14.30
2007,05,24,08,29,14.30
2007,05,24,08,30,14.30
2007,05,24,08,31,14.40
2007,05,24,08,32,14.40
2007,05,24,08,33,14.30
2007,05,24,08,34,14.30
2007,05,24,08,35,14.30
2007,05,24,08,36,14.30
2007,05,24,08,37,14.30
2007,05,24,08,38,14.30
2007,05,24,08,39,14.40
2007,05,24,08,40,14.40
2007,05,24,08,41,14.40
2007,05,24,08,42,14.50
2007,05,24,08,43,14.50
2007,05,24,08,44,14.50
2007,05,24,08,45,14.50
2007,05,24,08,46,14.40
2007,05,24,08,47,14.30
2007,05,24,08,48,14.30
2007,05,24,08,49,14.40
2007,05,24,08,50,14.40
2007,05,24,08,51,14.40
2007,05,24,08,52,14.40
2007,05,24,08,53,14.40
2007,05,24,08,54,14.40
2007,05,24,08,55,14.40
2007,05,24,08,56,14.40
2007,05,24,08,57,14.40
2007,05,24,08,58,14.30
2007,05,24,08,59,14.30
2007,05,24,09,00,14.20
2007,05,24,09,01,14.20
2007,05,24,09,02,14.10
2007,05,24,09,03,14.10
2007,05,24,09,04,14.10
2007,05,24,09,05,14.10
2007,05,24,09,06,14.10
2007,05,24,09,07,14.10
2007,05,24,09,08,14.10
2007,05,24,09,09,14.20
2007,05,24,09,10,14.20
2007,05,24,09,11,14.20
2007,05,24,09,12,14.30
2007,05,24,09,13,14.40
2007,05,24,09,14,14.40
2007,05,24,09,15,14.40
2007,05,24,09,16,14.40
2007,05,24,09,17,14.40
2007,05,24,09,18,14.50
2007,05,24,09,19,14.60
2007,05,24,09,20,14.70
2007,05,24,09,21,14.80
2007,05,24,09,22,15.00
2007,05,24,09,23,15.00
2007,05,24,09,24,15.00
2007,05,24,09,25,15.20
2007,05,24,09,26,15.20
2007,05,24,09,27,15.30
2007,05,24,09,28,15.30
2007,05,24,09,29,15.30
2007,05,24,09,30,15.30
2007,05,24,09,31,15.30
2007,05,24,09,32,15.30
2007,05,24,09,33,15.30
2007,05,24,09,34,15.30
2007,05,24,09,35,15.30
2007,05,24,09,36,15.40
2007,05,24,09,37,15.40
2007,05,24,09,38,15.40
2007,05,24,09,39,15.40
2007,05,24,09,40,15.40
2007,05,24,09,41,15.40
2007,05,24,09,42,15.40
2007,05,24,09,43,15.40
2007,05,24,09,44,15.40
2007,05,24,09,45,15.40
2007,05,24,09,46,15.40
2007,05,24,09,47,15.50
2007,05,24,09,48,15.60
2007,05,24,09,49,15.80
2007,05,24,09,50,15.80
2007,05,24,09,51,15.80
2007,05,24,09,52,15.80
2007,05,24,09,53,15.80
2007,05,24,09,54,15.70
2007,05,24,09,55,15.60
2007,05,24,09,56,15.60
2007,05,24,09,57,15.60
2007,05,24,09,58,15.60
2007,05,24,09,59,15.50
2007,05,24,10,00,15.50
2007,05,24,10,01,15.50
2007,05,24,10,02,15.60
2007,05,24,10,03,15.60
2007,05,24,10,04,15.50
2007,05,24,10,05,15.50
2007,05,24,10,06,15.40
2007,05,24,10,07,15.40
2007,05,24,10,08,15.40
2007,05,24,10,09,15.40
2007,05,24,10,10,15.40
2007,05,24,10,11,15.40
2007,05,24,10,12,15.40
2007,05,24,10,13,15.50
2007,05,24,10,14,15.60
2007,05,24,10,15,15.70
2007,05,24,10,16,15.80
2007,05,24,10,17,15.90
2007,05,24,10,18,15.90
2007,05,24,10,19,16.00
2007,05,24,10,20,16.00
2007,05,24,10,21,16.10
2007,05,24,10,22,16.10
2007,05,24,10,23,16.00
2007,05,24,10,24,15.80
2007,05,24,10,25,15.70
2007,05,24,10,26,15.60
2007,05,24,10,27,15.40
2007,05,24,10,28,15.30
2007,05,24,10,29,15.00
2007,05,24,10,30,15.00
2007,05,24,10,31,15.00
2007,05,24,10,32,15.00
2007,05,24,10,33,15.00
2007,05,24,10,34,15.00
2007,05,24,10,35,15.00
2007,05,24,10,36,15.00
2007,05,24,10,37,15.00
2007,05,24,10,38,15.00
2007,05,24,10,39,15.00
2007,05,24,10,40,15.10
2007,05,24,10,41,15.30
2007,05,24,10,42,15.30
2007,05,24,10,43,15.40
2007,05,24,10,44,15.50
2007,05,24,10,45,15.50
2007,05,24,10,46,15.60
2007,05,24,10,47,15.60
2007,05,24,10,48,15.50
2007,05,24,10,49,15.50
2007,05,24,10,50,15.40
2007,05,24,10,51,15.40
2007,05,24,10,52,15.30
2007,05,24,10,53,15.30
2007,05,24,10,54,15.30
2007,05,24,10,55,15.20
2007,05,24,10,56,15.10
2007,05,24,10,57,15.10
2007,05,24,10,58,15.20
2007,05,24,10,59,15.10
2007,05,24,11,00,15.10
2007,05,24,11,01,15.10
2007,05,24,11,02,15.10
2007,05,24,11,03,15.10
2007,05,24,11,04,15.10
2007,05,24,11,05,15.20
2007,05,24,11,06,15.30
2007,05,24,11,07,15.30
2007,05,24,11,08,15.30
2007,05,24,11,09,15.30
2007,05,24,11,10,15.30
2007,05,24,11,11,15.30
2007,05,24,11,12,15.30
2007,05,24,11,13,15.30
2007,05,24,11,14,15.30
2007,05,24,11,15,15.20
2007,05,24,11,16,15.20
2007,05,24,11,17,15.20
2007,05,24,11,18,15.20
2007,05,24,11,19,15.20
2007,05,24,11,20,15.20
2007,05,24,11,21,15.30
2007,05,24,11,22,15.40
2007,05,24,11,23,15.40
2007,05,24,11,24,15.40
2007,05,24,11,25,15.40
2007,05,24,11,26,15.40
2007,05,24,11,27,15.40
2007,05,24,11,28,15.50
2007,05,24,11,29,15.60
2007,05,24,11,30,15.70
2007,05,24,11,31,15.80
2007,05,24,11,32,15.90
2007,05,24,11,33,15.90
2007,05,24,11,34,15.90
2007,05,24,11,35,15.90
2007,05,24,11,36,15.90
2007,05,24,11,37,16.00
2007,05,24,11,38,16.00
2007,05,24,11,39,16.10
2007,05,24,11,40,16.20
2007,05,24,11,41,16.20
2007,05,24,11,42,16.20
2007,05,24,11,43,16.10
2007,05,24,11,44,16.00
2007,05,24,11,45,16.00
2007,05,24,11,46,16.00
2007,05,24,11,47,15.90
2007,05,24,11,48,16.00
2007,05,24,11,49,16.00
2007,05,24,11,50,16.00
2007,05,24,11,51,15.90
2007,05,24,11,52,16.00
2007,05,24,11,53,16.10
2007,05,24,11,54,16.10
2007,05,24,11,55,16.10
2007,05,24,11,56,16.00
2007,05,24,11,57,15.90
2007,05,24,11,58,15.80
2007,05,24,11,59,15.80
2007,05,24,12,00,15.70
2007,05,24,12,01,15.70
2007,05,24,12,02,15.80
2007,05,24,12,03,15.90
2007,05,24,12,04,16.00
2007,05,24,12,05,16.10
2007,05,24,12,06,16.00
2007,05,24,12,07,16.00
2007,05,24,12,08,16.00
2007,05,24,12,09,16.00
2007,05,24,12,10,15.90
2007,05,24,12,11,16.00
2007,05,24,12,12,16.00
2007,05,24,12,13,16.00
2007,05,24,12,14,15.90
2007,05,24,12,15,15.80
2007,05,24,12,16,15.80
2007,05,24,12,17,15.70
2007,05,24,12,18,15.70
2007,05,24,12,19,15.70
2007,05,24,12,20,15.80
2007,05,24,12,21,15.90
2007,05,24,12,22,16.10
2007,05,24,12,23,16.20
2007,05,24,12,24,16.30
2007,05,24,12,25,16.30
2007,05,24,12,26,16.30
2007,05,24,12,27,16.30
2007,05,24,12,28,16.30
2007,05,24,12,29,16.30
2007,05,24,12,30,16.30
2007,05,24,12,31,16.20
2007,05,24,12,32,16.20
2007,05,24,12,33,16.10
2007,05,24,12,34,16.00
2007,05,24,12,35,15.90
2007,05,24,12,36,15.90
2007,05,24,12,37,16.00
2007,05,24,12,38,16.10
2007,05,24,12,39,16.20
2007,05,24,12,40,16.30
2007,05,24,12,41,16.40
2007,05,24,12,42,16.40
2007,05,24,12,43,16.30
2007,05,24,12,44,16.30
2007,05,24,12,45,16.20
2007,05,24,12,46,16.20
2007,05,24,12,47,16.20
2007,05,24,12,48,16.20
2007,05,24,12,49,16.20
2007,05,24,12,50,16.30
2007,05,24,12,51,16.30
2007,05,24,12,52,16.40
2007,05,24,12,53,16.50
2007,05,24,12,54,16.60
2007,05,24,12,55,16.60
2007,05,24,12,56,16.60
2007,05,24,12,57,16.60
2007,05,24,12,58,16.60
2007,05,24,12,59,16.60
2007,05,24,13,00,16.60
2007,05,24,13,01,16.50
2007,05,24,13,02,16.60
2007,05,24,13,03,16.60
2007,05,24,13,04,16.60
2007,05,24,13,05,16.70
2007,05,24,13,06,16.70
2007,05,24,13,07,16.70
2007,05,24,13,08,16.60
2007,05,24,13,09,16.60
2007,05,24,13,10,16.60
2007,05,24,13,11,16.60
2007,05,24,13,12,16.70
2007,05,24,13,13,16.70
2007,05,24,13,14,16.70
2007,05,24,13,15,16.70
2007,05,24,13,16,16.70
2007,05,24,13,17,16.80
2007,05,24,13,18,16.80
2007,05,24,13,19,16.90
2007,05,24,13,20,16.90
2007,05,24,13,21,17.00
2007,05,24,13,22,17.00
2007,05,24,13,23,16.90
2007,05,24,13,24,16.90
2007,05,24,13,25,16.90
2007,05,24,13,26,16.90
2007,05,24,13,27,17.00
2007,05,24,13,28,17.10
2007,05,24,13,29,17.20
2007,05,24,13,30,17.30
2007,05,24,13,31,17.50
2007,05,24,13,32,17.60
2007,05,24,13,33,17.50
2007,05,24,13,34,17.50
2007,05,24,13,35,17.40
2007,05,24,13,36,17.30
2007,05,24,13,37,17.30
2007,05,24,13,38,17.40
2007,05,24,13,39,17.50
2007,05,24,13,40,17.60
2007,05,24,13,41,17.70
2007,05,24,13,42,17.80
2007,05,24,13,43,17.90
2007,05,24,13,44,17.90
2007,05,24,13,45,17.90
2007,05,24,13,46,17.90
2007,05,24,13,47,17.90
2007,05,24,13,48,17.90
2007,05,24,13,49,17.90
2007,05,24,13,50,17.90
2007,05,24,13,51,17.90
2007,05,24,13,52,17.90
2007,05,24,13,53,17.90
2007,05,24,13,54,17.90
2007,05,24,13,55,17.80
2007,05,24,13,56,17.80
2007,05,24,13,57,17.80
2007,05,24,13,58,17.80
2007,05,24,13,59,17.90
2007,05,24,14,00,18.00
2007,05,24,14,01,18.10
2007,05,24,14,02,18.20
2007,05,24,14,03,18.20
2007,05,24,14,04,18.20
2007,05,24,14,05,18.30
2007,05,24,14,06,18.30
2007,05,24,14,07,18.30
2007,05,24,14,08,18.40
2007,05,24,14,09,18.40
2007,05,24,14,10,18.40
2007,05,24,14,11,18.40
2007,05,24,14,12,18.40
2007,05,24,14,13,18.30
2007,05,24,14,14,18.30
2007,05,24,14,15,18.30
2007,05,24,14,16,18.20
2007,05,24,14,17,18.10
2007,05,24,14,18,18.00
2007,05,24,14,19,18.00
2007,05,24,14,20,18.00
2007,05,24,14,21,18.10
2007,05,24,14,22,18.20
2007,05,24,14,23,18.20
2007,05,24,14,24,18.10
2007,05,24,14,25,18.00
2007,05,24,14,26,17.90
2007,05,24,14,27,18.00
2007,05,24,14,28,18.10
2007,05,24,14,29,18.10
2007,05,24,14,30,18.20
2007,05,24,14,31,18.20
2007,05,24,14,32,18.20
2007,05,24,14,33,18.20
2007,05,24,14,34,18.30
2007,05,24,14,35,18.40
2007,05,24,14,36,18.40
2007,05,24,14,37,18.40
2007,05,24,14,38,18.40
2007,05,24,14,39,18.50
2007,05,24,14,40,18.50
2007,05,24,14,41,18.40
2007,05,24,14,42,18.40
2007,05,24,14,43,18.40
2007,05,24,14,44,18.40
2007,05,24,14,45,18.30
2007,05,24,14,46,18.20
2007,05,24,14,47,18.20
2007,05,24,14,48,18.20
2007,05,24,14,49,18.20
2007,05,24,14,50,18.10
2007,05,24,14,51,18.20
2007,05,24,14,52,18.20
2007,05,24,14,53,18.20
2007,05,24,14,54,18.20
2007,05,24,14,55,18.20
2007,05,24,14,56,18.30
2007,05,24,14,57,18.30
2007,05,24,14,58,18.30
2007,05,24,14,59,18.30
2007,05,24,15,00,18.40
2007,05,24,15,01,18.50
2007,05,24,15,02,18.60
2007,05,24,15,03,18.60
2007,05,24,15,04,18.60
2007,05,24,15,05,18.60
2007,05,24,15,06,18.60
2007,05,24,15,07,18.70
2007,05,24,15,08,18.80
2007,05,24,15,09,18.80
2007,05,24,15,10,18.90
2007,05,24,15,11,18.90
2007,05,24,15,12,19.00
2007,05,24,15,13,19.10
2007,05,24,15,14,19.10
2007,05,24,15,15,19.20
2007,05,24,15,16,19.20
2007,05,24,15,17,19.20
2007,05,24,15,18,19.20
2007,05,24,15,19,19.20
2007,05,24,15,20,19.20
2007,05,24,15,21,19.20
2007,05,24,15,22,19.20
2007,05,24,15,23,19.20
2007,05,24,15,24,19.30
2007,05,24,15,25,19.20
2007,05,24,15,26,19.20
2007,05,24,15,27,19.20
2007,05,24,15,28,19.20
2007,05,24,15,29,19.20
2007,05,24,15,30,19.20
2007,05,24,15,31,19.20
2007,05,24,15,32,19.20
2007,05,24,15,33,19.30
2007,05,24,15,34,19.20
2007,05,24,15,35,19.20
2007,05,24,15,36,19.10
2007,05,24,15,37,19.20
2007,05,24,15,38,19.20
2007,05,24,15,39,19.20
2007,05,24,15,40,19.20
2007,05,24,15,41,19.30
2007,05,24,15,42,19.20
2007,05,24,15,43,19.20
2007,05,24,15,44,19.30
2007,05,24,15,45,19.40
2007,05,24,15,46,19.40
2007,05,24,15,47,19.50
2007,05,24,15,48,19.50
2007,05,24,15,49,19.60
2007,05,24,15,50,19.60
2007,05,24,15,51,19.60
2007,05,24,15,52,19.60
2007,05,24,15,53,19.60
2007,05,24,15,54,19.60
2007,05,24,15,55,19.60
2007,05,24,15,56,19.60
2007,05,24,15,57,19.60
2007,05,24,15,58,19.60
2007,05,24,15,59,19.70
2007,05,24,16,00,19.70
2007,05,24,16,01,19.80
2007,05,24,16,02,19.80
2007,05,24,16,03,19.80
2007,05,24,16,04,19.80
2007,05,24,16,05,19.80
2007,05,24,16,06,19.80
2007,05,24,16,07,19.80
2007,05,24,16,08,19.90
2007,05,24,16,09,19.90
2007,05,24,16,10,19.90
2007,05,24,16,11,19.90
2007,05,24,16,12,19.90
2007,05,24,16,13,19.90
2007,05,24,16,14,19.90
2007,05,24,16,15,19.90
2007,05,24,16,16,19.90
2007,05,24,16,17,19.90
2007,05,24,16,18,19.90
2007,05,24,16,19,19.80
2007,05,24,16,20,19.80
2007,05,24,16,21,19.70
2007,05,24,16,22,19.70
2007,05,24,16,23,19.60
2007,05,24,16,24,19.60
2007,05,24,16,25,19.70
2007,05,24,16,26,19.70
2007,05,24,16,27,19.70
2007,05,24,16,28,19.70
2007,05,24,16,29,19.70
2007,05,24,16,30,19.60
2007,05,24,16,31,19.60
2007,05,24,16,32,19.60
2007,05,24,16,33,19.60
2007,05,24,16,34,19.70
2007,05,24,16,35,19.80
2007,05,24,16,36,19.80
2007,05,24,16,37,19.80
2007,05,24,16,38,19.80
2007,05,24,16,39,19.90
2007,05,24,16,40,19.90
2007,05,24,16,41,19.90
2007,05,24,16,42,19.90
2007,05,24,16,43,19.90
2007,05,24,16,44,19.80
2007,05,24,16,45,19.80
2007,05,24,16,46,19.90
2007,05,24,16,47,19.90
2007,05,24,16,48,19.90
2007,05,24,16,49,20.00
2007,05,24,16,50,20.00
2007,05,24,16,51,20.00
2007,05,24,16,52,20.10
2007,05,24,16,53,20.00
2007,05,24,16,54,20.00
2007,05,24,16,55,20.00
2007,05,24,16,56,20.00
2007,05,24,16,57,20.10
2007,05,24,16,58,20.20
2007,05,24,16,59,20.20
2007,05,24,17,00,20.30
2007,05,24,17,01,20.30
2007,05,24,17,02,20.40
2007,05,24,17,03,20.50
2007,05,24,17,04,20.60
2007,05,24,17,05,20.70
2007,05,24,17,06,20.80
2007,05,24,17,07,20.90
2007,05,24,17,08,20.90
2007,05,24,17,09,21.00
2007,05,24,17,10,21.00
2007,05,24,17,11,21.00
2007,05,24,17,12,21.10
2007,05,24,17,13,21.20
2007,05,24,17,14,21.20
2007,05,24,17,15,21.20
2007,05,24,17,16,21.20
2007,05,24,17,17,21.30
2007,05,24,17,18,21.30
2007,05,24,17,19,21.30
2007,05,24,17,20,21.30
2007,05,24,17,21,21.30
2007,05,24,17,22,21.30
2007,05,24,17,23,21.20
2007,05,24,17,24,21.20
2007,05,24,17,25,21.10
2007,05,24,17,26,21.10
2007,05,24,17,27,21.10
2007,05,24,17,28,21.10
2007,05,24,17,29,21.00
2007,05,24,17,30,21.00
2007,05,24,17,31,20.90
2007,05,24,17,32,20.90
2007,05,24,17,33,21.00
2007,05,24,17,34,21.00
2007,05,24,17,35,21.10
2007,05,24,17,36,21.10